Doha, Qatar

8:00 AM AST on August 24, 2016 (GMT +0300)
Doha International

Weather History for OTBD - September, 2013

Change the Weather History Date:

Tuesday, September 17, 2013

  Actual Average Record
Temperature  
Mean Temperature 99 °F -  
Max Temperature 112 °F 98 °F 112 °F (2013)
Min Temperature 86 °F 77 °F 77 °F (1997)
Cooling Degree Days 34    
Growing Degree Days 49 (Base 50)    
Moisture  
Dew Point 62 °F    
Average Humidity 37    
Maximum Humidity 70    
Minimum Humidity 4    
Precipitation  
Precipitation 0.00 in 0.00 in - ()
Sea Level Pressure  
Sea Level Pressure 29.61 in    
Wind  
Wind Speed 6 mph ()    
Max Wind Speed 14 mph    
Max Gust Speed -    
Visibility 5.6 miles    
Events      
Averages and records for this station are not official NWS values.
T = Trace of Precipitation, MM = Missing Value Source: Averaged Metar Reports

Daily Weather History Graph

Daily Weather History Graph

Search for Another Location

Airport or City:

Trip Planner

Search our weather history database for the weather conditions in past years. The results will help you decide how hot, cold, wet, or windy it might be!

Date:

Astronomy

Sep. 17, 2013 Rise Set
Actual Time 5:20 AM AST 5:35 PM AST
Civil Twilight 4:57 AM AST 5:58 PM AST
Nautical Twilight 4:30 AM AST 6:25 PM AST
Astronomical Twilight 4:03 AM AST 6:52 PM AST
Moon 4:00 PM AST (9/17) 2:59 AM AST (9/17)
Length of Visible Light 13h 01m
Length of Day
12h 15m
Waxing Gibbous, 94% of the Moon is Illuminated
Sep 17
Waxing Gibbous
Sep 19
Full
Sep 27
Last Quarter
Oct 5
New
Oct 12
First Quarter

Hourly Weather History & Observations

Time (AST) Temp. Heat Index Dew Point Humidity Pressure Visibility Wind Dir Wind Speed Gust Speed Precip Events Conditions
12:00 AM 91.4 °F 107.2 °F 78.8 °F 66% 29.62 in - SW 5.8 mph - N/A   Clear
12:30 AM 89.6 °F 104.7 °F 78.8 °F 70% 29.62 in - SW 4.6 mph - N/A   Clear
1:00 AM 89.6 °F 102.2 °F 77.0 °F 66% 29.62 in - SW 4.6 mph - N/A   Clear
1:30 AM 87.8 °F 99.7 °F 77.0 °F 70% 29.59 in - SW 4.6 mph - N/A   Clear
2:00 AM 87.8 °F 97.6 °F 75.2 °F 66% 29.59 in - SW 5.8 mph - N/A   Clear
2:30 AM 87.8 °F 97.6 °F 75.2 °F 66% 29.59 in - SW 3.5 mph - N/A   Clear
3:00 AM 88 °F - 73 °F 53% 29.61 in 6 mi SW 3.5 mph - -  
3:00 AM 87.8 °F 95.6 °F 73.4 °F 62% 29.59 in - SW 3.5 mph - N/A   Clear
4:00 AM 87.8 °F 92.6 °F 69.8 °F 55% 29.59 in - WSW 5.8 mph - N/A   Clear
5:00 AM 87.8 °F 91.4 °F 68.0 °F 52% 29.62 in - WSW 5.8 mph - N/A   Clear
5:30 AM 87.8 °F 90.4 °F 66.2 °F 49% 29.62 in - WSW 4.6 mph - N/A   Clear
6:00 AM 87.8 °F 89.4 °F 64.4 °F 46% 29.62 in - WSW 3.5 mph - N/A   Clear
6:30 AM 89.6 °F 90.1 °F 62.6 °F 40% 29.62 in 5.6 mi WSW 5.8 mph - N/A   Unknown
7:00 AM 91.4 °F 91.4 °F 60.8 °F 36% 29.65 in 5.0 mi WSW 6.9 mph - N/A   Unknown
7:30 AM 93.2 °F 93.3 °F 60.8 °F 34% 29.65 in 5.0 mi WSW 5.8 mph - N/A   Unknown
8:00 AM 96.8 °F 96.2 °F 59.0 °F 28% 29.65 in 4.3 mi WSW 6.9 mph - N/A   Unknown
8:30 AM 98.6 °F 97.6 °F 57.2 °F 25% 29.65 in 4.3 mi WSW 6.9 mph - N/A   Unknown
9:00 AM 101 °F - 54 °F 13% 29.66 in 5 mi WSW 5.8 mph - -   Smoke
9:00 AM 102.2 °F 100.4 °F 53.6 °F 20% 29.65 in 5.0 mi WSW 5.8 mph - N/A   Unknown
9:30 AM 104.0 °F - 50.0 °F 16% 29.65 in - West 5.8 mph - N/A   Clear
10:00 AM 105.8 °F - 46.4 °F 14% 29.65 in - West 6.9 mph - N/A   Clear
10:30 AM 107.6 °F - 46.4 °F 13% 29.65 in - West 6.9 mph - N/A   Clear
11:00 AM 109.4 °F - 41.0 °F 10% 29.65 in - West 6.9 mph - N/A   Clear
11:30 AM 109.4 °F - 42.8 °F 11% 29.62 in - WNW 6.9 mph - N/A   Clear
12:00 PM 109.4 °F - 39.2 °F 9% 29.62 in - NNW 9.2 mph - N/A   Clear
12:30 PM 111.2 °F - 41.0 °F 9% 29.62 in - NNW 10.4 mph - N/A   Clear
1:00 PM 111.2 °F - 39.2 °F 9% 29.62 in - NNW 10.4 mph - N/A   Clear
1:30 PM 113.0 °F - 37.4 °F 8% 29.59 in - NW 9.2 mph - N/A   Clear
2:00 PM 111.2 °F - 42.8 °F 10% 29.59 in - North 9.2 mph - N/A   Clear
2:30 PM 111.2 °F - 48.2 °F 12% 29.56 in - North 13.8 mph - N/A   Clear
3:00 PM 110 °F - 39 °F 4% 29.59 in 9 mi North 13.8 mph - -  
3:00 PM 111.2 °F - 39.2 °F 9% 29.56 in - North 13.8 mph - N/A   Clear
3:30 PM 105.8 °F 108.3 °F 62.6 °F 24% 29.56 in - North 10.4 mph - N/A   Clear
4:00 PM 104.0 °F 108.9 °F 66.2 °F 29% 29.56 in - North 10.4 mph - N/A   Clear
4:30 PM 104.0 °F 106.6 °F 62.6 °F 26% 29.59 in - NNE 8.1 mph - N/A   Clear
5:00 PM 105.8 °F - 41.0 °F 11% 29.59 in - NNW 6.9 mph - N/A   Clear
5:30 PM 98.6 °F 107.7 °F 71.6 °F 42% 29.59 in - NNE 9.2 mph - N/A   Clear
6:00 PM 96.8 °F 109.6 °F 75.2 °F 50% 29.59 in - NNE 8.1 mph - N/A   Clear
7:00 PM 95.0 °F 109.7 °F 77.0 °F 56% 29.62 in - North 6.9 mph - N/A   Clear
8:00 PM 95.0 °F 109.7 °F 77.0 °F 56% 29.62 in - North 3.5 mph - N/A   Clear
9:00 PM 93 °F - 78 °F 54% 29.64 in 7 mi ESE 4.6 mph - -  
9:00 PM 93.2 °F 110.2 °F 78.8 °F 63% 29.62 in - ESE 4.6 mph - N/A   Clear
9:30 PM 95.0 °F 107.4 °F 75.2 °F 53% 29.62 in - South 3.5 mph - N/A   Clear
10:00 PM 93.2 °F 105.0 °F 75.2 °F 56% 29.62 in - Variable 2.3 mph - N/A   Clear
10:30 PM 93.2 °F 105.0 °F 75.2 °F 56% 29.59 in - South 3.5 mph - N/A   Clear
11:00 PM 91.4 °F 102.5 °F 75.2 °F 59% 29.59 in - South 3.5 mph - N/A   Clear
11:30 PM 91.4 °F 102.5 °F 75.2 °F 59% 29.59 in - SSW 4.6 mph - N/A   Clear